STARLINK-32346, 61849

Orbit data source: Space-Track

STARLINK-32346, 61849 is a payload satellite owned by SpaceX/Seattle (US) in LEO that was launched on Thu, 07 Nov 2024 UTC via an FALCON 9 launch vehicle from the Air Force Eastern Test Range (AFETR). Payloads include a variety of satellites, spacecraft, and rockets equipped with specific instruments for various scientific and technological missions. These include communications satellites like Starlink; space stations such as the ISS; scientific satellites like the Hubble; Earth observation satellites from companies like Planet Labs, Umbra, and HawkEye 360; GPS; miniature CubeSats for education and research; and military/defense satellites.

Loading next visibility...
STARLINK-32346 details
Identifier
61849, 2024-202E
Orbit
LEO
Last TLE update8 hours ago
Origin
Flag of USSpaceX/Seattle (US)
ManufacturerSpaceX/Seattle
MissionOperational spacecraft
Bus & MotorSTARLINK V2M, Unknown motor
Mass730 kg wet, ~700 kg dry
Launch date (UTC)
2024-11-07 (2 months ago)
Launch vehicle
FALCON 9
Launch site
Air Force Eastern Test Range (AFETR)
Object type
Payload
Rocket body
Debris
Shape & HBRUnknown
Radar Cross SectionLarge (>1 m²)

Expand to show TLE details & history

TLE from 8 hours ago
0 STARLINK-32346
1 61849U 24202E   24361.59736120  .00001030  00000-0  31915-4 0  9994
2 61849  42.9993 201.0573 0001840 260.8364  99.2284 15.40700033  8225
Epoch: 2024-12-26T14:20Z
Definitive object data (Epoch: 2024-12-26T14:20:12.007Z)
Latitude-0.00005°
Longitude-109.56726°
Altitude444.018 km
Speed7.647 km/s
True Right ascension13h 24m 13s
True Declination0° 00' 00"
Sunlit
Object was in daylight at TLE epoch
Visualization TLE readout
Latitude41.4797°
Longitude-40.98056°
Altitude448.059 km
Speed7.649 km/s
Apparent Right ascension14h 03m 20s
Apparent Declination5° 03' 13"
Sunlit
Object is in daylight
Visualization observer readout
Local Sidereal Time21:49:41
Azimuth291.651° WNW
Elevation-16.582°
Doppler factor1
Orbital elements
Apogee altitude447.254 km
Perigee altitude444.743 km
Semi-major axis6,824.135 km
Eccentricity0.000184
Inclination42.9993°
RAAN201.0573°
Arg. of periapsis260.8364°
True anomaly99.24921°
Mean anomaly99.2284°
Eccentric anomaly99.23881°
Mean motion3.8501 °/min
BSTAR0.000031915
Orbital period93.5 mins
Loading maneuver chart data...
Loading historical data...
Loading historical data...
Loading historical data...
Loading historical data...
Loading historical data...
Loading historical data...
Loading historical data...

STARLINK-32346 Visibility forecast

Observer location: undefined°, undefined

Span
Click to sort rows by Start time (UTC) header in descending order
Start Az.
Max El. time (UTC)
Max El. Az.
Max El.
End time (UTC)
End Az.
5 mins2024-12-26 22:35:31.889Z274.111° WNW2024-12-26 22:38:31.889Z191.071° SSW31.739°2024-12-26 22:40:31.889Z144.675° SSE
5 mins2024-12-27 17:01:31.889Z220.276° SW2024-12-27 17:03:31.889Z141.884° SSE37.514°2024-12-27 17:06:31.889Z78.891° E
5 mins2024-12-27 18:39:31.889Z280.255° WNW2024-12-27 18:41:31.889Z359.4° N39.614°2024-12-27 18:44:31.889Z69.668° E
5 mins2024-12-27 20:17:31.889Z295.002° NW2024-12-27 20:19:31.889Z349.261° N39.361°2024-12-27 20:22:31.889Z86.382° E
5 mins2024-12-27 21:55:31.889Z275.545° WNW2024-12-27 21:57:31.889Z225.925° WSW36.375°2024-12-27 22:00:31.889Z133.756° SE
|